Meteo Giornale » Osservazioni meteo Egitto » Cairo

ore: 17:00 - Osservazioni Meteo Cairo
Lat. 30° 8' N Lon. 31° 24' E Alt. 64 metri s.l.m.

molto_nuvoloso Africa/Cairo

16 °C

Molto Nuvoloso

Temp. 24 Ore

10 °C

18 °C

Nord

14.8 Km/h

Dew point 6 °C

Umidità 51 %

Visibilità  6 Km

Il sole sorge alle ore 06:30

Il sole tramonta alle ore 17:46

Data e Ora Cielo e Fenomeni T °C DP °C Um. % Pres. hPa Vis. km Vento km/h
Oggi h: 17:00 molto_nuvoloso Molto Nuvoloso 16 6 51 1020 6 N 14.8
Oggi h: 16:30 molto_nuvoloso Molto Nuvoloso 16 6 51 1019 10 N 22.2
Oggi h: 16:00 molto_nuvoloso Molto Nuvoloso 17 5 45 1019 10 NO 11.1
Oggi h: 15:30 molto_nuvoloso Molto Nuvoloso 17 5 45 1019 10 NO 11.1
Oggi h: 14:30 molto_nuvoloso Molto Nuvoloso 16 5 47 1020 10 NO 16.7
Oggi h: 14:00 molto_nuvoloso Molto Nuvoloso 16 5 47 1020 10 N/NO 13
Oggi h: 13:30 molto_nuvoloso Molto Nuvoloso 16 4 44 1020 10 O/NO 11.1
Oggi h: 13:00 nuvoloso Nuvoloso 16 5 47 1020 10 NO 14.8
Oggi h: 12:30 nuvoloso Nuvoloso 17 4 41 1020 10 N/NO 16.7
Oggi h: 12:00 nuvoloso Nuvoloso 16 4 44 1020 10 NO 11.1
Oggi h: 11:30 poco_nuvoloso Poco Nuvoloso 16 4 44 1021 10 O 11.1
Oggi h: 11:00 poco_nuvoloso Poco Nuvoloso 15 4 47 1021 10 O 13
Oggi h: 10:30 sereno Sereno 14 4 50 1021 6 O 14.8
Oggi h: 10:00 sereno Sereno 14 5 54 1021 6 O/NO 11.1
Oggi h: 09:30 sereno Sereno 13 4 54 1021 3 O/NO 14.8
Oggi h: 09:00 foschia Foschia 13 5 58 1021 4 O 11.1
Oggi h: 08:30 foschia Foschia 12 6 66 1021 4 O 11.1
Oggi h: 08:00 foschia Foschia 12 4 57 1020 4 N 5.5
Oggi h: 07:30 foschia Foschia 11 4 61 1020 4 N 0
Oggi h: 07:00 foschia Foschia 10 4 66 1020 4 N 5.5
Oggi h: 06:30 foschia Foschia 11 4 61 1020 4 N 5.5
Oggi h: 06:00 foschia Foschia 10 5 71 1019 4 N 0
Oggi h: 05:30 foschia Foschia 10 5 71 1019 4 N 0
Oggi h: 05:00 foschia Foschia 10 6 76 1019 4 N 0
Oggi h: 04:30 foschia Foschia 10 6 76 1019 4 N 0
Oggi h: 04:00 foschia Foschia 11 5 66 1019 4 N 0
Oggi h: 03:30 molto_nuvoloso Molto Nuvoloso 12 4 57 1019 6 N 5.5
Oggi h: 03:00 molto_nuvoloso Molto Nuvoloso 12 4 57 1019 6 N 5.5
Oggi h: 02:30 molto_nuvoloso Molto Nuvoloso 13 4 54 1019 6 N 0
Oggi h: 02:00 molto_nuvoloso Molto Nuvoloso 12 4 57 1020 6 N 5.5
Oggi h: 01:30 molto_nuvoloso Molto Nuvoloso 12 4 57 1020 6 O/SO 9.3
Oggi h: 01:00 molto_nuvoloso Molto Nuvoloso 13 4 54 1020 6 S/SO 7.4
Oggi h: 00:30 molto_nuvoloso Molto Nuvoloso 13 4 54 1020 6 S 9.3
Oggi h: 00:00 molto_nuvoloso Molto Nuvoloso 13 4 54 1020 6 S/SO 7.4
Ieri h: 23:30 molto_nuvoloso Molto Nuvoloso 13 4 54 1020 6 N 5.5
Ieri h: 23:00 molto_nuvoloso Molto Nuvoloso 13 4 54 1020 6 N 5.5
Ieri h: 22:30 molto_nuvoloso Molto Nuvoloso 13 5 58 1021 6 S/SE 7.4
Ieri h: 22:00 molto_nuvoloso Molto Nuvoloso 13 5 58 1021 6 N 5.5
Ieri h: 21:30 molto_nuvoloso Molto Nuvoloso 13 5 58 1021 6 SE 7.4
Ieri h: 21:00 molto_nuvoloso Molto Nuvoloso 13 5 58 1021 6 E 7.4
Ieri h: 20:30 molto_nuvoloso Molto Nuvoloso 13 5 58 1020 6 E/NE 9.3
Ieri h: 20:00 molto_nuvoloso Molto Nuvoloso 13 5 58 1021 6 N/NO 16.7
Ieri h: 19:30 molto_nuvoloso Molto Nuvoloso 14 4 50 1021 6 NO 27.8
Ieri h: 19:00 molto_nuvoloso Molto Nuvoloso 16 3 41 1020 6 NO 7.4
Ieri h: 18:30 molto_nuvoloso Molto Nuvoloso 17 3 39 1019 6 NO 7.4
Ieri h: 18:00 molto_nuvoloso Molto Nuvoloso 17 3 39 1019 6 NO 9.3
Ieri h: 17:30 molto_nuvoloso Molto Nuvoloso 17 3 39 1019 6 NO 9.3
Ieri h: 17:00 molto_nuvoloso Molto Nuvoloso 18 -0 29 1019 6 O 16.7